[[{"header":{"parameterUnit":"m.s-1","parameterCategory":1,"la1":30.2991,"la2":30.254,"lo1":-89.0895,"lo2":-89.0444,"dy":0.0017,"dx":0.0017,"nx":28,"ny":28,"refTime":"2023-08-26T21:00:00:Z","depth":0,"parameterNumber":2,"parameterNumberName":"U-component_of_WINDS"},"data":[0,0,0,0,0,0,0,0,0,0,0,0,0,0,0,0,0,0,0,0,0,0,0,0,0,0,0,0,0,0,0,0,0,0,0,0,0,0,0,0,0,0,0,0,0,0,0,0,0,0,0,0,0,0,0,0,0,0,1.953,1.953,0,1.9507,1.9507,1.9507,1.9404,1.9401,1.9399,1.9396,1.9379,1.938,1.9382,0,0,0,0,0,0,0,0,0,0,0,0,0,1.9491,1.9492,1.953,1.953,1.953,1.9507,1.9507,1.9507,1.9404,1.9401,1.9398,1.9395,1.9378,1.938,1.9382,0,0,0,0,0,0,0,0,0,0,0,0,0,1.9492,1.9493,1.953,1.9476,1.947,1.9507,1.9507,1.9507,1.9405,1.9401,1.9397,1.9394,1.9377,1.938,1.9383,1.9472,0,0,1.9391,1.9392,0,0,0,0,0,0,0,0,1.9492,1.9494,1.9484,1.9479,1.9474,1.9454,1.9486,1.9495,1.9406,1.943,1.9396,1.9392,1.9407,1.9407,1.9411,1.9471,1.9471,1.9391,1.9393,1.9394,1.9395,0,0,0,0,0,0,0,1.9492,1.9494,1.9521,1.9484,1.9478,1.9454,1.945,1.9488,1.944,1.9427,1.942,1.9418,1.9404,1.9409,1.941,1.947,1.9391,1.9393,1.9395,1.9396,1.9604,1.9608,0,0,0,0,0,0,1.9499,1.9495,1.9522,1.952,1.9474,1.9458,1.9453,1.9464,1.9439,1.9431,1.9421,1.9414,1.9406,1.9407,1.9409,1.9513,1.9394,1.9396,1.9398,1.96,1.9605,1.9609,0,0,0,0,0,0,1.9499,1.9503,1.9523,1.9506,1.9506,1.9462,1.9475,1.9466,1.9471,1.9434,1.9426,1.9435,1.9403,1.9405,1.9457,1.9511,1.9398,1.94,1.9596,1.9602,1.9607,1.9721,0,0,0,0,0,0,1.9498,1.9503,1.9535,1.9507,1.9508,1.957,1.9479,1.9468,1.9475,1.9464,1.9445,1.9438,1.94,1.9454,1.946,1.9512,1.9402,1.9591,1.9598,1.9605,1.9712,1.973,1.9745,0,0,0,0,0,1.9497,1.9569,1.9537,1.9541,1.9547,1.9573,1.9574,1.9528,1.948,1.9512,1.9489,1.9438,1.9504,1.946,1.9466,1.952,1.9587,1.9596,1.9605,1.9705,1.9726,1.9744,0,0,0,0,0,0,1.9607,1.9564,1.9529,1.9593,1.9588,1.9556,1.9596,1.9552,1.9561,1.9551,1.9495,1.9492,1.9552,1.9541,1.9493,1.9606,1.9537,1.9547,1.9611,1.9631,1.9647,1.9649,1.9404,0,0,0,0,0,1.9638,1.9661,1.9624,1.9685,1.9683,1.9641,1.965,1.9615,1.9608,1.9605,1.9585,1.9582,1.9601,1.9615,1.9631,1.971,1.9705,1.975,1.9766,1.978,1.979,1.9832,1.9852,1.9638,1.9638,1.9638,0,0,1.9704,1.9684,1.9702,1.9706,1.9697,1.9725,1.9639,1.9671,1.9692,1.961,1.9658,1.9644,1.9636,1.9702,1.973,1.9694,1.9848,1.9791,1.9803,1.9805,1.9843,1.9864,1.9882,1.9644,1.9643,1.9642,0,0,1.9838,1.9824,1.9874,1.9866,1.9853,1.9824,1.9837,1.9811,1.9798,1.9844,1.9784,1.9809,1.9843,1.984,1.9843,1.9977,1.9931,1.9984,2.007,2.0112,2.0129,2.0143,2.0192,2.021,1.9994,1.9994,1.9994,0,1.9922,1.9958,1.9905,1.9941,1.9946,1.9872,1.9923,1.9919,1.9913,1.9919,1.9878,1.992,1.991,1.9975,2.0007,2.0012,2.0025,1.9986,2.013,2.0144,2.0157,2.0203,2.0222,2.0,2.0,1.9999,1.9998,0,2.0063,2.009,2.0131,2.0126,2.0135,2.0178,2.0134,2.0149,2.0114,2.009,2.0139,2.0123,2.0135,2.0148,2.0114,2.0209,2.0187,2.014,2.0069,2.0185,2.0228,2.0245,2.001,2.0008,2.0006,2.0004,0,0,2.0266,2.0229,2.0246,2.0243,2.0223,2.0244,2.0285,2.0294,2.031,2.0309,2.0343,2.0374,2.033,2.0333,2.0299,2.0335,2.0443,2.0283,2.0282,2.0314,2.0548,2.0585,2.0606,2.0412,2.0415,2.0418,2.0549,0,2.0394,2.046,2.0414,2.0488,2.0513,2.0443,2.0479,2.0473,2.0451,2.0471,2.0448,2.0471,2.041,2.0412,2.0445,2.0423,2.049,2.0413,2.0446,2.0448,2.0451,2.0628,2.0667,2.0791,2.0565,2.0568,2.057,0,2.0553,2.0557,2.0634,2.061,2.0618,2.0651,2.0657,2.0676,2.0667,2.0649,2.0654,2.061,2.065,2.058,2.0637,2.0585,2.0596,2.0588,2.0591,2.0594,2.0517,2.0636,2.0829,2.0849,2.0595,2.0593,2.0591,0,2.0695,2.072,2.0769,2.0768,2.0741,2.0766,2.0756,2.0743,2.0753,2.0758,2.0764,2.0775,2.0782,2.0793,2.0754,2.0706,2.0816,2.0742,2.0804,2.0805,2.0831,2.083,2.103,2.0836,2.0836,2.0836,2.0835,0,2.0844,2.0895,2.0832,2.0863,2.0917,2.0864,2.092,2.0903,2.0893,2.0921,2.0861,2.0889,2.0835,2.0858,2.0828,2.088,2.0883,2.0871,2.0863,2.0877,2.0879,2.0884,2.0875,2.0841,2.084,2.0839,2.0838,0,2.1013,2.0973,2.1022,2.0991,2.0985,2.1027,2.1002,2.103,2.1004,2.104,2.1045,2.1006,2.103,2.0992,2.1011,2.0991,2.1064,2.1041,2.1066,2.106,2.1124,2.112,2.1336,2.1362,2.1151,2.1153,2.1154,0,2.1111,2.1148,2.1121,2.1134,2.1127,2.1149,2.1158,2.1107,2.1119,2.1112,2.1142,2.116,2.1172,2.1214,2.1188,2.1203,2.1182,2.1257,2.1184,2.1198,2.1185,2.1184,2.1188,2.1272,2.1275,2.1277,2.1279,0,2.1291,2.1269,2.1282,2.129,2.1301,2.1305,2.1304,2.1319,2.1266,2.1283,2.1305,2.1314,2.1333,2.1353,2.1362,2.1354,2.1309,2.1301,2.1317,2.1332,2.1346,2.1341,2.1108,2.1297,2.1295,2.1294,2.1293,2.1292,2.1428,2.1457,2.1443,2.1461,2.1454,2.1456,2.148,2.1457,2.1474,2.1485,2.1455,2.1485,2.1476,2.1483,2.148,2.1504,2.1471,2.1493,2.1499,2.1506,2.1516,2.1341,2.1505,2.1505,2.1504,2.1504,2.1503,0,2.1605,2.1592,2.1609,2.1609,2.1624,2.1577,2.1574,2.159,2.1617,2.1611,2.1624,2.1651,2.1669,2.1645,2.166,2.1684,2.1664,2.169,2.1689,2.1688,2.1544,2.153,2.1706,2.1706,2.1706,2.1706,2.1706,2.1706,2.17,2.1747,2.1724,2.1769,2.1756,2.1784,2.1786,2.1788,2.1783,2.1815,2.183,2.1813,2.1801,2.1814,2.183,2.1823,2.1832,2.1866,2.1852,2.1718,2.1698,2.1679,2.1665,2.1868,2.1868,2.1993,2.1995,2.1995]},{"header":{"parameterUnit":"m.s-1","parameterCategory":1,"la1":30.2991,"la2":30.254,"lo1":-89.0895,"lo2":-89.0444,"dy":0.0017,"dx":0.0017,"nx":28,"ny":28,"refTime":"2023-08-26T21:00:00:Z","depth":0,"parameterNumber":3,"parameterNumberName":"V-component_of_WINDS"},"data":[0,0,0,0,0,0,0,0,0,0,0,0,0,0,0,0,0,0,0,0,0,0,0,0,0,0,0,0,0,0,0,0,0,0,0,0,0,0,0,0,0,0,0,0,0,0,0,0,0,0,0,0,0,0,0,0,0,0,0.068,0.0681,0,0.0756,0.0757,0.0757,0.0791,0.0791,0.0791,0.0791,0.0865,0.0867,0.0869,0,0,0,0,0,0,0,0,0,0,0,0,0,0.0561,0.0563,0.068,0.0681,0.0682,0.0756,0.0757,0.0758,0.0791,0.0791,0.0791,0.0791,0.0864,0.0866,0.0869,0,0,0,0,0,0,0,0,0,0,0,0,0,0.0622,0.0564,0.068,0.0708,0.0711,0.0755,0.0757,0.0758,0.0791,0.0791,0.0791,0.0791,0.0863,0.0866,0.0869,0.0891,0,0,0.0879,0.088,0,0,0,0,0,0,0,0,0.0619,0.0627,0.0703,0.0706,0.071,0.0764,0.0742,0.0802,0.0791,0.0761,0.0791,0.0791,0.0831,0.0837,0.0851,0.0894,0.0897,0.0879,0.0881,0.0882,0.0883,0,0,0,0,0,0,0,0.0615,0.0624,0.071,0.0704,0.0708,0.0715,0.0724,0.0753,0.0795,0.0763,0.0766,0.0774,0.0833,0.0848,0.0853,0.0898,0.0879,0.0881,0.0883,0.0885,0.0962,0.0962,0,0,0,0,0,0,0.0606,0.062,0.0708,0.0712,0.0663,0.0717,0.0727,0.0747,0.0795,0.0803,0.0774,0.0776,0.0843,0.0849,0.0856,0.0884,0.0882,0.0885,0.0887,0.0962,0.0962,0.0962,0,0,0,0,0,0,0.0604,0.0614,0.0705,0.0667,0.0679,0.072,0.0741,0.0748,0.0763,0.0804,0.0811,0.0783,0.0843,0.0851,0.0882,0.0887,0.0886,0.0889,0.0961,0.0962,0.0962,0.0941,0,0,0,0,0,0,0.06,0.0613,0.0622,0.0667,0.0681,0.0731,0.0742,0.075,0.0769,0.0771,0.0813,0.082,0.0844,0.0877,0.0885,0.0891,0.0891,0.0961,0.0962,0.0962,0.0941,0.094,0.0939,0,0,0,0,0,0.0596,0.0613,0.0623,0.0633,0.0694,0.0731,0.0739,0.0766,0.0769,0.0779,0.0804,0.0819,0.0885,0.088,0.0889,0.0896,0.0961,0.0961,0.0962,0.0941,0.094,0.0939,0,0,0,0,0,0,0.0567,0.0619,0.0631,0.0663,0.0692,0.0737,0.0749,0.0764,0.0793,0.0794,0.0825,0.0834,0.0862,0.0882,0.0875,0.0919,0.0924,0.0926,0.0905,0.0905,0.0904,0.0899,0.0894,0,0,0,0,0,0.0564,0.0591,0.0635,0.0659,0.0673,0.0708,0.0726,0.0744,0.0776,0.0788,0.0816,0.0845,0.0872,0.0889,0.0917,0.0944,0.0953,0.0953,0.0952,0.0951,0.0953,0.0968,0.0968,0.0964,0.0964,0.0964,0,0,0.0559,0.0591,0.0606,0.0654,0.0679,0.0705,0.0719,0.0746,0.0765,0.0792,0.0823,0.0844,0.0878,0.0906,0.092,0.0924,0.0956,0.0952,0.0951,0.0953,0.0969,0.0969,0.0969,0.0964,0.0964,0.0964,0,0,0.0563,0.059,0.0613,0.0638,0.0676,0.0699,0.0704,0.0746,0.0762,0.0794,0.0814,0.0836,0.0883,0.0906,0.0924,0.0935,0.0949,0.0943,0.0939,0.0953,0.0954,0.0954,0.0958,0.0959,0.0945,0.0945,0.0945,0,0.0552,0.0593,0.0623,0.0649,0.0669,0.0695,0.0718,0.074,0.0784,0.0796,0.08,0.0858,0.0883,0.0917,0.092,0.0934,0.094,0.0939,0.0951,0.0952,0.0953,0.0957,0.0958,0.0944,0.0944,0.0944,0.0944,0,0.0577,0.0605,0.0619,0.0662,0.0684,0.0708,0.074,0.0757,0.0773,0.0796,0.0827,0.0857,0.0891,0.09,0.0916,0.0936,0.0937,0.0946,0.0951,0.0952,0.0956,0.0958,0.0942,0.0943,0.0943,0.0943,0,0,0.0566,0.0625,0.063,0.065,0.0693,0.0714,0.0738,0.0773,0.0787,0.0816,0.0837,0.0875,0.0883,0.0903,0.0921,0.0934,0.094,0.094,0.0942,0.0939,0.0964,0.0958,0.0959,0.0949,0.095,0.095,0.0961,0,0.0576,0.0623,0.065,0.0685,0.0711,0.0735,0.0756,0.0784,0.0805,0.0829,0.0852,0.0878,0.0887,0.0899,0.0912,0.0937,0.0946,0.0936,0.0968,0.0969,0.096,0.0961,0.0955,0.0964,0.0963,0.0963,0.0963,0,0.0595,0.0625,0.0663,0.0703,0.0714,0.0733,0.0766,0.0788,0.082,0.0834,0.0856,0.0875,0.09,0.0903,0.0937,0.093,0.0944,0.0958,0.0959,0.0964,0.0967,0.0966,0.0967,0.0969,0.0966,0.0966,0.0966,0,0.0583,0.0633,0.0662,0.0678,0.0725,0.0737,0.0757,0.0789,0.0807,0.0835,0.0847,0.0877,0.0893,0.0915,0.094,0.094,0.0972,0.0977,0.0984,0.0983,0.099,0.0989,0.0994,0.0998,0.0998,0.0998,0.0998,0,0.0592,0.0615,0.0657,0.0675,0.07,0.073,0.0753,0.0775,0.0802,0.0824,0.0846,0.0865,0.0897,0.092,0.0939,0.0964,0.0971,0.0983,0.0988,0.0981,0.098,0.0992,0.0992,0.0999,0.0999,0.0999,0.0999,0,0.0584,0.0614,0.0647,0.0689,0.0699,0.0716,0.0751,0.0768,0.079,0.0817,0.0825,0.0859,0.0886,0.0914,0.0951,0.0964,0.0989,0.0995,0.0978,0.0981,0.0986,0.0986,0.0999,0.1002,0.1004,0.1004,0.1004,0,0.0588,0.0606,0.065,0.0666,0.0686,0.0712,0.0731,0.076,0.0779,0.0815,0.0828,0.0857,0.0883,0.0926,0.0953,0.0981,0.0988,0.0991,0.0993,0.0985,0.0988,0.0987,0.0989,0.099,0.099,0.099,0.099,0,0.0592,0.0606,0.0633,0.0665,0.0687,0.0714,0.0741,0.0752,0.0786,0.0806,0.0835,0.0855,0.0893,0.0921,0.0952,0.0971,0.0986,0.0989,0.0992,0.0986,0.0975,0.0981,0.0977,0.0989,0.0989,0.0989,0.0989,0.0989,0.059,0.0607,0.0641,0.067,0.0693,0.0718,0.0736,0.076,0.0786,0.082,0.0835,0.0864,0.0893,0.0937,0.0955,0.0977,0.0981,0.0986,0.0987,0.0987,0.0986,0.0971,0.0983,0.0983,0.0983,0.0983,0.0983,0,0.0596,0.0618,0.0645,0.0682,0.0705,0.0718,0.0748,0.0765,0.0791,0.0818,0.0843,0.0876,0.0903,0.0932,0.0961,0.0973,0.098,0.098,0.0979,0.0983,0.0981,0.0976,0.0973,0.0973,0.0973,0.0973,0.0973,0.0973,0.0601,0.063,0.0647,0.0688,0.071,0.074,0.0756,0.0778,0.0799,0.0836,0.0859,0.0878,0.0905,0.0936,0.0961,0.0969,0.0978,0.0976,0.0985,0.0983,0.0983,0.0984,0.0979,0.0978,0.0978,0.0986,0.0986,0.0986]}]]